Location: Bouchavesnes-Bergen
(49.9859°N, 2.9203°E)
Time: 20:54:12
(UTC+00:00)

NOAA 16 DEB - Pass Details

Date: 26 September 2021
Orbit: 798 x 841 km, 98.8° (Epoch: 23 October)

Event Time Altitude Azimuth Distance (km) Brightness Sun altitude
Exits shadow 21:33:06 18° 23° (NNE) 1,880 ? -34.7°
Drops below altitude 10° 21:34:57 10° 6° (N) 2,390 ? -34.9°
Sets 21:37:39 0° 354° (N) 3,322 ? -35.1°
